STARLINK-36525, 67450

Orbit data source: Space-Track

STARLINK-36525, 67450 is a payload satellite owned by SpaceX/Seattle (US) in LEO that was launched on Wed, 14 Jan 2026 UTC via an FALCON 9 launch vehicle from the Air Force Eastern Test Range (AFETR). Payload-class satellites include a variety of spacecraft equipped with specific instruments for various scientific and technological missions. These include communications satellites like Starlink; space stations such as the ISS; scientific satellites like the Hubble; Earth observation satellites from companies like Planet Labs, Umbra, and HawkEye 360; GPS; miniature CubeSats for education and research; and military/defense satellites.

Loading next visibility...
Identifier
67450, 2026-008F
Orbit
LEO
Country
Flag of USUS
Related business
Manufacturer
SpaceX/Seattle
Mission
Operational spacecraft
Bus & Motor
STARLINK V2MO, Unknown motor
Mass
575 kg wet, ~530 kg dry
Launch date (UTC)
2026-01-14 (2 months ago)
Launch vehicle
FALCON 9
Launch site
Air Force Eastern Test Range (AFETR)
Object type
Payload
Rocket body
Debris
Shape & HBR
Unknown shape, 17.7 m
Radar Cross Section
RCS unknown

Expand to show TLE details & history
Last TLE update: 16 hours ago

TLE from 16 hours ago
0 STARLINK-36525
1 67450U 26008F   26062.55949020  .00042580  00000-0  15472-2 0  9998
2 67450  42.9942 239.9347 0001907 260.0962  99.9675 15.27594336  8630
Epoch: 2026-03-03T13:25Z
TLE epoch observation values (Epoch: 2026-03-03T13:25:39.953Z)
Latitude
0.00004°
Longitude
-122.81854°
Altitude
483.008 km
Speed
7.626 km/s
True Right ascension
15h 59m 44s
True Declination
0° 00' 00"
Sunlit
Object was in daylight at epoch
Visualization orbit readout
Latitude
Unknown
Longitude
Unknown
Altitude
Unknown
Speed
Unknown
Apparent Right ascension
Unknown
Apparent Declination
Unknown
Sunlit
N/A
Visualization observer readout
Local Sidereal Time
08:43:56
Azimuth
Unknown
Elevation
Unknown
Doppler factor
Unknown
Orbital elements
Apogee altitude
486.261 km
Perigee altitude
483.644 km
Semi-major axis
6,863.089 km
Eccentricity
0.00019
Inclination
42.9942°
RAAN
239.9347°
Arg. of periapsis
260.0962°
True anomaly
99.98902°
Mean anomaly
99.9675°
Eccentric anomaly
99.97826°
Mean motion
3.81737 °/min
Orbital period
94.31 mins
BSTAR
0.0015472
Loading maneuver chart data...
Computing Atmospheric mass density...
Loading historical data...
Loading historical data...
Loading historical data...
Loading historical data...
Loading historical data...
Loading historical data...
Loading historical data...

Documentation

Showing up to 5 results
|